Temp
5 5 4 4 3 4 3 3 3 4 4 3 3 2 2 2 2 3 3 3 4 4 4 4 4 4 3 3 3 3 3 3 3 4 5 6 7 7 8 8 9 10 10
5 5 4 4 4 4 3 3 3 4 4 3 3 3 2 3 2 2 2 2 2 2 2 3 3 4 4 3 3 3 4 4 3 3 4 5 6 7 7 7 8 9 9
5 5 4 4 4 4 4 4 3 4 4 3 3 3 3 3 2 2 2 1 1 2 2 2 2 3 3 4 4 3 3 3 3 3 4 4 5 5 6 6 7 8 8
5 5 4 4 4 4 4 4 3 3 4 3 3 3 3 3 3 2 2 1 0 1 2 2 2 2 3 4 4 4 4 3 3 3 3 4 4 5 6 6 5 5 6
5 5 4 4 4 4 3 4 4 3 3 3 3 2 2 2 4 3 3 2 1 1 1 2 2 2 3 4 4 4 4 4 3 2 2 3 4 4 5 5 5 6 6
5 5 4 4 4 3 3 3 4 4 3 3 2 2 2 2 4 4 3 3 2 2 1 1 1 1 1 2 4 3 4 3 4 3 3 3 2 3 4 4 4 4 2
4 4 4 4 4 4 3 3 4 4 4 3 2 2 2 2 4 4 3 3 3 2 2 1 1 1 1 1 1 1 1 2 2 2 1 1 2 3 4 4 3 3 3
4 4 4 4 4 4 3 3 4 4 4 4 3 3 2 3 3 3 3 2 3 2 2 2 2 1 1 1 -1 -1 -0 0 1 1 1 1 1 1 3 3 4 3 2
4 4 4 4 4 4 3 4 4 4 4 4 4 3 3 3 3 3 2 2 2 2 2 2 2 2 2 1 0 -1 -0 -1 -0 0 0 0 -0 0 1 1 1 1 0
4 4 5 5 4 4 4 4 4 4 4 4 4 4 3 3 3 3 3 2 2 2 2 1 1 2 2 2 1 1 -0 1 0 1 0 0 -1 -1 -1 -1 0 0 1
4 5 5 5 5 4 4 4 4 4 4 4 4 4 3 3 3 3 3 3 2 2 1 1 1 1 2 2 2 2 2 2 2 1 1 1 0 0 0 -0 -1 -1 -1
4 5 5 5 5 4 4 4 4 3 3 3 3 3 3 3 2 1 2 2 2 2 1 2 2 2 2 2 1 2 1 1 1 1 2 2 1 1 1 1 0 -0 -1
4 5 5 5 5 4 4 3 3 2 2 2 1 1 2 2 1 1 1 1 1 1 1 2 2 2 2 1 1 1 0 -0 -1 -1 -1 -0 0 1 1 1 0 0 -0
4 5 5 5 5 4 4 4 3 3 2 1 1 1 1 1 1 1 1 1 2 2 3 3 2 2 2 1 1 1 0 -1 -1 -1 -1 -1 -1 -0 0 0 0 0 0
4 5 5 4 4 4 4 5 4 4 3 2 1 2 1 1 1 2 2 2 2 2 2 2 2 1 1 1 1 1 1 -0 -1 -1 -1 -1 -1 -1 -1 -1 -0 -0 -1
3 4 4 4 4 4 4 4 4 4 4 4 3 3 2 2 2 2 2 3 3 2 2 1 1 1 1 1 1 0 0 0 0 -0 -1 -1 -1 -2 -1 -1 -1 -1 -1
3 3 3 4 4 3 4 4 4 4 4 4 4 3 3 3 3 3 3 2 2 2 1 1 1 1 1 0 0 0 0 0 0 0 -0 -1 -1 -1 -1 -1 -1 -1 -1
3 3 3 3 3 3 3 4 4 4 4 5 4 4 4 4 3 3 2 2 2 1 1 1 1 1 0 0 -0 -0 -0 0 0 0 0 -1 -1 -1 -1 -1 -1 -1 -1
2 3 3 3 3 3 4 4 4 4 4 4 4 4 3 4 3 3 2 2 2 1 1 1 0 0 0 0 0 0 -0 -0 0 -0 -0 -0 -0 -1 -1 -1 -1 -1 -0
2 2 3 2 3 3 3 3 4 4 4 4 4 3 3 3 3 3 2 2 2 1 1 1 1 0 0 0 0 0 -0 -0 -0 -0 -0 -0 0 0 -0 -1 -1 -0 -0
1 2 2 2 2 2 3 3 3 3 4 4 4 3 3 3 3 2 2 2 1 1 1 1 1 1 0 0 0 0 -0 -0 -0 -0 -0 -0 0 0 1 1 0 -0 -1
1 1 2 2 2 2 2 3 3 3 3 3 3 3 3 3 2 2 2 1 1 1 1 1 1 0 1 1 0 -0 -0 -0 0 -0 -0 0 0 1 1 1 1 1 0
0 1 1 2 2 2 2 2 3 3 3 2 2 2 2 2 2 2 1 1 1 1 1 1 0 0 1 0 1 0 -0 -0 0 0 0 0 0 1 1 1 1 0 0
-1 -0 0 0 1 1 1 2 2 2 2 2 2 1 1 1 1 1 1 1 1 0 0 0 0 0 0 1 1 1 1 1 1 1 1 1 1 1 1 1 0 0 0
-2 -2 -2 -2 -2 -2 -1 -1 -0 -0 0 0 0 0 0 0 0 0 0 -0 -0 -0 0 0 0 0 0 0 1 1 2 2 2 1 1 1 1 1 1 1 0 0 -0
-2 -2 -2 -3 -3 -3 -3 -3 -3 -3 -3 -3 -2 -1 -1 -1 -1 -1 -1 -1 -1 -0 -0 -0 -0 -0 -0 -0 0 1 2 2 2 2 1 1 1 1 1 1 0 0 -0
Height
836 832 828 824 819 817 812 807 801 797 792 786 780 773 769 764 760 757 754 752 750 748 746 745 745 745 744 744 744 745 746 746 746 743 743 742 743 744 743 745 747 747 749
837 833 830 825 820 818 813 808 803 799 794 789 784 778 773 769 766 762 759 755 753 751 749 747 745 744 743 743 743 742 742 744 745 745 743 743 743 743 744 745 744 745 746
837 834 830 826 822 818 814 810 805 801 796 792 787 782 777 773 770 766 763 759 756 754 751 748 745 743 742 741 741 741 741 741 741 742 741 742 742 742 742 741 742 743 743
838 835 831 827 823 820 815 812 807 803 799 794 790 786 780 776 772 768 766 762 759 755 752 749 746 743 741 740 739 738 739 738 739 739 738 738 739 739 739 739 740 743 742
838 835 831 828 824 821 816 813 809 805 801 798 793 788 783 778 774 770 768 765 762 758 754 751 747 743 740 738 736 736 736 736 736 738 737 736 736 736 736 737 738 739 739
839 836 832 828 825 821 817 813 810 806 803 799 796 791 786 781 776 772 769 767 764 761 757 753 749 746 741 738 734 735 734 733 733 734 735 735 734 733 733 733 734 735 737
840 837 833 829 826 823 819 814 811 807 804 800 797 793 789 784 778 774 772 769 766 764 760 756 752 748 744 741 738 737 736 735 734 733 734 734 731 729 729 729 730 731 732
840 837 833 830 827 824 820 816 812 809 805 802 798 795 791 786 782 777 774 770 768 765 762 758 755 750 747 744 742 740 738 737 736 735 734 733 730 726 725 726 726 727 728
840 837 834 831 827 824 820 817 813 810 806 803 799 796 793 789 784 779 775 772 769 766 763 761 757 754 750 747 744 742 740 738 737 735 734 732 729 727 725 723 723 724 724
841 838 835 832 829 825 822 818 815 811 807 804 801 798 795 791 786 782 778 774 771 768 765 763 759 755 752 749 746 744 741 739 736 735 733 731 729 726 724 723 722 721 721
841 838 836 833 829 826 823 819 816 812 808 804 801 798 795 792 788 784 780 776 772 769 766 763 760 756 753 750 747 744 741 738 736 734 732 730 728 726 724 722 721 721 720
841 839 835 832 829 827 824 820 817 814 809 805 801 798 796 793 789 786 782 778 775 771 767 764 761 757 753 750 747 744 741 738 736 733 731 729 727 725 723 722 720 719 718
841 839 836 833 830 827 823 820 817 814 811 807 803 800 796 793 789 786 782 779 776 772 769 766 762 758 755 751 748 745 742 739 736 733 731 729 727 724 722 720 719 717 715
840 838 836 833 830 828 826 823 820 816 812 809 806 802 799 795 790 786 782 779 776 772 768 765 763 760 756 753 749 746 743 740 738 735 732 729 726 723 721 719 717 715 712
839 838 835 833 831 829 826 823 820 817 815 812 809 807 802 798 795 791 786 781 777 774 770 766 762 759 756 752 749 747 743 740 737 734 731 728 725 722 719 717 715 713 710
839 839 836 834 832 829 826 823 821 820 817 814 812 809 806 803 798 793 788 784 780 775 770 767 764 761 758 755 751 747 744 740 737 734 731 728 724 721 717 715 713 711 708
839 839 836 834 833 829 828 826 823 820 818 814 812 810 806 802 799 794 789 785 781 777 772 768 766 763 760 757 753 749 745 741 738 734 731 728 725 721 718 714 711 708 705
838 837 835 834 832 831 830 827 824 823 816 815 811 808 803 800 797 794 790 786 781 777 775 772 768 765 761 758 754 750 745 741 738 734 731 728 724 721 717 713 709 706 702
836 836 835 834 833 831 829 828 825 821 818 815 811 809 806 801 798 795 792 787 783 779 776 773 770 767 763 759 755 751 746 742 739 735 731 727 724 720 716 712 708 704 700
835 834 833 832 831 831 830 827 823 820 818 815 814 811 805 801 797 794 791 787 784 782 778 774 771 767 763 759 755 750 746 742 738 734 731 727 724 720 717 713 709 705 701
833 832 832 831 829 828 828 826 824 820 816 816 815 811 809 805 803 801 799 793 788 784 780 776 770 766 762 759 755 750 746 741 738 735 731 727 724 720 717 714 711 707 702
831 830 830 828 826 826 825 823 821 819 820 820 816 811 811 808 803 800 795 791 788 785 781 777 772 768 762 758 755 750 746 741 736 733 730 727 724 720 716 713 709 705 701
830 829 828 827 826 825 823 821 820 818 817 815 812 810 807 803 802 800 797 794 789 786 783 778 774 769 765 761 755 750 746 741 736 732 729 726 723 720 716 712 708 704 700
828 827 826 826 825 824 823 822 819 819 817 815 811 812 810 807 804 800 798 795 793 789 785 781 776 770 766 760 756 750 746 741 737 733 729 726 722 719 715 711 707 703 699
827 827 826 826 826 825 822 820 820 819 817 815 813 810 807 805 803 799 797 793 790 786 781 778 775 772 767 763 757 752 746 742 737 734 730 726 722 719 715 711 708 703 699
826 827 828 827 826 825 824 823 821 820 818 816 814 809 807 804 800 797 795 793 789 784 781 778 775 772 767 763 758 753 748 742 737 733 730 726 722 718 716 712 708 704 700
Wind_Speed
24 23 21 23 24 25 25 27 28 28 25 28 29 32 28 28 25 24 21 18 17 17 12 6 4 4 7 6 7 8 11 9 4 12 16 13 13 16 13 13 11 12 16
23 22 21 23 25 24 24 26 30 27 24 26 29 29 26 25 25 24 22 24 21 19 17 15 15 6 6 10 10 11 9 10 9 10 17 18 15 13 12 16 14 16 17
23 21 21 26 23 24 21 27 29 27 23 28 28 28 25 22 23 24 26 23 21 19 19 17 15 13 11 8 10 13 13 12 11 11 10 16 19 16 11 12 16 17 17
22 21 21 24 21 24 22 21 24 25 24 25 26 27 26 25 21 21 21 25 24 21 19 17 18 11 12 13 8 11 11 13 13 13 14 14 15 15 14 9 9 15 24
21 21 22 23 22 22 24 22 19 24 25 24 27 27 28 23 22 18 20 19 22 24 22 23 18 19 11 14 7 4 9 14 13 9 10 13 12 13 12 11 10 14 15
20 21 21 22 22 20 22 23 20 21 18 22 25 28 27 25 25 20 16 18 20 23 25 25 19 21 20 14 8 6 6 10 8 10 8 9 13 15 11 13 9 5 3
19 20 21 21 21 20 24 22 23 20 21 16 21 23 25 24 27 23 18 19 17 18 22 23 20 18 22 14 12 11 10 12 13 5 5 10 15 18 18 17 16 14 13
19 20 21 21 20 20 22 25 22 20 21 18 16 21 23 23 27 26 21 21 20 17 19 21 23 21 16 18 14 12 11 8 11 9 7 8 11 13 12 16 18 20 18
18 20 20 20 19 19 19 23 23 22 20 20 18 17 22 25 25 25 23 23 21 17 18 17 19 20 20 15 18 17 14 12 11 9 7 7 8 8 9 7 11 10 6
19 19 19 19 19 18 19 19 20 20 21 21 19 20 19 22 24 24 22 22 23 20 18 18 18 18 17 17 17 16 13 14 12 11 9 8 8 9 7 4 5 9 9
17 16 17 17 17 18 19 19 19 20 20 20 22 20 23 21 25 25 24 22 20 18 18 20 21 19 16 15 15 15 15 13 12 11 10 9 9 10 12 7 3 8 9
16 14 15 15 15 17 18 19 19 20 20 20 21 22 24 23 24 25 23 22 22 19 19 19 19 18 17 16 16 17 16 15 16 16 12 11 10 11 12 11 9 7 7
16 14 14 13 15 14 16 17 18 21 20 19 20 21 22 24 26 26 24 22 23 20 20 18 17 17 17 17 17 17 16 18 17 17 18 18 17 13 12 9 11 12 13
15 13 13 12 13 13 14 15 17 19 19 19 19 21 22 22 26 29 28 27 27 26 24 21 17 17 18 18 19 18 18 15 16 17 17 17 17 16 14 10 11 11 13
14 11 12 12 12 12 12 13 12 14 15 15 17 19 22 23 24 23 22 23 23 21 20 22 24 26 24 24 23 21 19 18 21 19 16 15 15 16 14 13 13 14 14
14 12 12 13 13 12 12 12 12 15 14 14 14 16 19 16 19 21 21 18 19 19 22 24 23 26 23 25 25 24 21 22 19 19 20 17 16 15 15 15 12 12 14
13 12 12 13 13 14 14 15 16 15 13 14 15 15 16 18 19 20 21 18 18 22 25 24 24 25 26 26 26 24 24 23 20 19 18 18 16 16 14 15 14 14 14
12 11 11 12 12 13 13 15 15 16 17 17 14 16 16 16 17 18 20 22 27 28 26 24 24 24 25 26 27 26 26 25 22 20 18 17 18 17 16 15 16 14 14
12 12 13 11 11 13 13 13 14 14 14 14 16 17 21 17 18 19 21 22 22 24 26 26 25 25 24 25 25 26 25 23 22 22 20 19 17 18 17 18 18 18 16
11 10 11 12 11 12 12 13 13 14 16 16 16 18 22 21 22 21 21 20 21 22 22 23 25 26 25 25 25 25 25 25 24 23 22 20 19 17 17 18 18 17 16
11 9 10 10 10 10 11 12 13 15 15 15 16 17 16 16 19 21 24 23 22 22 22 23 21 22 25 26 25 25 25 24 22 20 22 21 20 19 16 16 15 17 18
9 9 10 9 10 9 10 11 12 13 16 18 18 18 17 18 18 19 20 20 20 20 20 20 20 21 21 22 25 25 24 25 23 21 20 20 19 19 18 17 18 20 21
6 8 9 9 9 11 9 10 11 12 13 14 15 17 17 17 18 19 21 21 21 22 21 20 21 22 23 23 22 22 23 24 22 19 17 18 20 20 20 19 19 21 19
6 5 5 7 8 10 11 13 13 13 14 14 15 18 19 20 19 20 20 22 24 25 24 24 22 22 22 24 24 24 23 23 20 17 15 17 19 19 20 19 19 19 18
3 5 7 8 10 11 11 11 13 16 15 15 17 17 18 19 19 21 21 21 23 24 23 22 22 23 21 26 26 24 23 22 19 16 16 16 16 17 19 18 19 19 18
3 4 6 8 8 10 12 14 15 15 17 17 16 15 17 18 19 20 22 24 25 24 23 23 23 23 21 25 28 25 23 22 20 17 17 18 16 17 19 18 19 19 20
Wind_Direction
353 355 5 358 348 1 3 355 353 1 11 10 8 13 21 25 21 24 22 29 28 26 17 339 284 264 268 280 284 276 276 292 306 303 301 323 309 296 282 289 246 246 247
351 358 6 359 359 5 5 2 356 5 15 14 11 13 18 25 24 22 22 24 20 10 360 358 355 324 272 264 269 269 275 278 273 278 292 302 303 297 295 279 244 245 252
352 358 3 359 6 1 4 9 3 6 17 19 15 16 16 22 28 25 24 21 15 9 14 2 337 333 337 271 259 258 262 264 265 267 281 281 285 290 288 286 259 251 279
353 360 2 358 3 1 358 7 13 10 11 14 18 16 19 18 18 24 17 19 19 14 12 2 359 323 318 332 282 246 251 246 255 268 267 282 277 282 274 254 255 286 283
355 2 1 359 1 4 357 8 11 17 14 17 14 16 11 11 18 19 24 16 23 21 14 10 7 5 332 325 301 256 250 251 240 251 273 281 286 281 253 257 242 257 275
1 2 0 1 1 7 2 2 9 11 18 21 17 15 11 6 22 16 23 21 18 15 19 17 18 13 3 357 24 43 16 277 252 220 256 277 279 265 280 252 252 245 264
4 2 0 1 1 5 7 1 3 7 8 16 26 18 12 8 19 20 21 20 19 18 16 18 10 21 18 16 358 10 24 23 42 43 3 335 303 273 270 247 247 241 238
3 0 359 358 2 3 2 1 3 2 10 6 8 16 13 7 16 21 18 15 15 26 20 17 18 10 34 29 26 19 15 15 17 10 357 325 334 349 261 253 254 251 257
359 357 356 356 358 360 359 358 2 4 1 6 4 10 15 11 7 15 18 16 9 12 17 16 13 11 13 27 24 24 20 20 21 9 354 341 341 326 323 284 244 218 229
353 353 354 357 357 358 356 356 0 1 2 4 6 8 8 12 8 10 12 12 10 8 11 12 5 10 7 8 13 360 0 359 355 357 9 8 354 357 356 282 258 236 244
346 351 356 1 2 358 356 357 1 3 5 5 6 8 11 9 7 6 6 6 6 1 4 357 358 355 1 3 3 353 346 342 337 339 335 342 348 342 353 357 298 270 264
342 349 357 1 7 4 3 3 3 7 7 7 4 5 8 8 5 6 4 6 2 5 359 349 354 356 2 2 2 3 6 359 357 353 339 328 334 338 330 328 330 323 299
342 347 352 358 6 6 7 14 8 13 13 5 1 356 358 1 1 5 4 5 5 1 354 346 358 0 2 4 5 7 4 2 0 356 350 347 344 332 321 308 320 314 295
339 343 348 355 357 3 355 1 13 11 15 11 0 354 352 357 0 1 2 6 6 3 1 4 2 6 9 6 6 8 3 4 2 351 343 340 338 341 331 336 314 312 301
339 344 345 351 349 353 358 350 353 2 7 7 2 356 355 354 354 355 359 0 5 7 8 11 10 8 4 6 6 5 359 0 359 351 344 339 340 341 332 329 322 315 307
332 340 339 341 346 346 349 352 359 359 352 357 1 356 353 354 355 358 1 6 9 14 23 17 8 5 1 359 360 358 359 357 355 353 352 348 346 342 337 336 325 314 305
325 329 332 336 341 340 345 345 345 358 5 4 356 354 357 355 358 2 6 9 14 15 20 16 11 5 1 359 357 355 351 353 353 356 347 345 355 349 343 340 335 326 317
324 326 321 327 331 335 341 339 340 346 342 350 356 358 7 16 6 7 9 16 15 17 14 8 4 4 2 0 358 353 351 355 354 355 355 352 345 346 343 330 326 315 307
322 321 323 325 331 331 335 340 341 337 338 340 343 351 5 15 14 16 17 19 13 10 7 5 3 359 358 0 359 358 355 352 349 353 354 356 352 351 339 339 332 330 329
324 326 325 332 332 334 338 337 335 334 335 340 349 352 351 358 360 2 8 12 10 8 5 5 2 360 359 358 359 358 357 356 353 352 353 354 354 351 341 347 352 348 352
316 318 328 333 330 331 334 330 332 330 331 339 344 344 348 350 352 355 357 1 2 2 359 357 1 5 2 360 358 356 358 356 355 352 351 352 354 352 353 353 349 344 346
315 322 325 326 327 332 335 331 328 329 338 347 345 341 351 350 353 353 354 356 356 353 353 354 357 359 5 3 358 355 353 354 354 352 348 348 349 346 341 339 337 335 334
321 325 329 333 332 331 339 334 338 338 344 348 343 344 351 350 354 353 351 350 346 350 356 356 354 356 0 357 359 1 354 351 351 351 346 348 347 345 341 339 340 340 336
296 294 318 346 353 344 348 343 344 351 352 353 350 354 355 356 356 348 348 346 350 351 353 353 354 355 354 358 354 359 360 356 355 358 355 352 349 349 349 347 349 350 350
340 340 342 346 346 341 336 344 355 1 356 354 356 354 352 356 351 345 349 350 351 352 351 352 354 356 355 352 356 357 359 358 2 0 3 2 359 360 1 0 1 4 8
347 353 353 357 358 350 345 346 348 348 343 344 346 348 352 351 346 348 353 350 350 350 351 353 354 355 356 352 355 355 358 1 2 5 6 8 7 11 13 11 11 14 17